Wind_Gust
23 14 14 15 18 21 21 23 22 31 32 29 20 32 23 14 14 23 16 20 21 17 16 10 10 11 18 21 18 20 25 26 26 22 19 17 13 19 17 19 24 25 26 28 27 27 25 18 17 17 16 16 16 15 15 15 16 14 14 14 14 14 14 14 14 15 15 15 14 14 15 16 15 15 14 14 15 14 13 14 15 15 15 15 16 16 17 18 18 18 19 19 18 17 17 16 15
23 15 13 13 19 21 19 21 34 27 29 23 18 14 19 15 23 16 17 17 20 19 14 13 13 16 11 13 14 22 26 22 19 20 19 20 20 19 19 21 23 25 26 27 26 25 25 24 16 16 17 18 17 16 15 16 15 15 15 15 14 14 14 14 14 15 15 14 14 14 15 15 15 14 14 15 15 16 16 14 14 15 16 15 16 17 19 18 18 18 18 17 16 16 15 15 14
23 18 17 16 20 22 24 25 30 26 21 24 21 23 22 20 16 15 16 18 17 14 11 13 11 11 13 16 18 16 17 16 17 20 21 21 23 19 21 22 22 24 26 25 26 25 25 23 16 16 18 18 17 16 15 15 15 15 15 15 14 14 14 14 14 14 14 14 15 14 14 14 15 15 16 16 16 15 15 14 16 15 15 16 15 16 16 16 17 17 16 16 15 15 14 14 12
22 16 19 15 22 21 25 26 27 26 26 22 19 16 23 13 17 14 14 14 16 12 13 13 16 14 18 17 19 24 18 16 18 14 22 20 20 24 23 22 21 24 24 25 25 26 23 23 16 17 19 19 18 17 16 16 15 15 15 14 15 14 14 14 15 14 14 14 14 14 14 15 16 17 17 16 15 15 14 14 14 15 15 15 16 16 15 15 15 16 16 15 15 14 13 11 10
24 18 19 18 21 24 28 30 27 28 27 19 21 19 16 14 15 13 15 13 15 14 14 18 15 16 13 19 15 17 20 19 16 14 26 21 25 24 24 23 22 23 23 24 24 24 27 23 17 17 19 19 18 18 17 16 15 15 15 14 14 14 14 14 15 14 13 13 13 13 13 14 16 17 16 16 15 15 14 14 13 14 15 14 13 12 12 13 14 15 15 14 13 13 11 9 8
22 19 20 21 22 24 25 23 26 28 24 15 18 18 19 15 14 12 16 14 13 14 15 10 18 13 19 22 18 17 16 14 12 17 20 21 23 24 24 22 22 22 22 22 23 24 27 22 19 19 18 19 18 18 18 16 15 14 14 15 15 16 15 14 15 15 14 14 13 12 13 15 16 16 16 16 15 15 14 13 13 13 13 15 14 14 13 14 13 13 13 13 13 11 9 8 7
22 20 25 25 27 21 21 28 29 27 21 16 18 24 19 16 14 17 16 17 14 13 14 15 11 12 20 21 21 20 16 13 11 16 18 23 24 24 24 22 21 21 21 21 22 23 27 20 18 18 18 18 19 19 18 16 15 15 16 15 15 15 15 15 14 14 14 13 13 13 14 13 14 14 14 15 15 15 14 13 13 13 12 12 14 14 14 14 13 13 13 12 12 10 9 7 6
15 22 18 21 23 23 24 26 30 29 22 21 14 16 15 12 13 13 13 20 18 16 13 12 10 18 19 17 14 16 16 18 19 21 25 25 24 24 21 22 22 22 22 19 20 25 24 17 17 17 18 19 19 18 17 16 15 16 15 14 15 14 15 15 14 13 12 13 13 12 12 11 11 12 13 13 13 13 14 13 13 12 13 13 13 13 13 13 13 12 12 11 10 9 8 7 5
21 25 12 20 27 29 26 32 35 32 20 14 14 17 8 10 12 12 13 12 12 12 14 15 16 17 20 16 19 18 19 18 21 20 22 24 24 23 22 21 22 23 21 20 24 26 25 17 15 15 19 19 18 18 17 17 16 16 15 15 15 13 14 14 14 13 12 10 10 10 10 10 11 11 11 12 13 13 13 13 13 13 12 12 13 13 13 13 12 11 11 10 9 9 7 6 5
27 22 22 28 23 30 31 30 35 33 35 19 16 18 19 17 15 16 13 13 16 14 17 11 11 12 15 16 20 15 17 16 20 21 22 23 23 21 20 20 21 23 21 23 24 24 24 20 14 15 18 19 17 17 17 16 16 15 15 15 14 13 14 14 13 12 11 11 10 10 9 10 10 10 11 12 13 13 13 13 12 13 12 12 12 12 12 12 11 10 10 9 8 7 7 5 5
29 22 24 30 28 30 32 30 30 30 34 19 18 12 15 12 15 13 12 13 11 15 13 14 18 11 12 17 18 15 14 17 19 21 22 22 21 21 21 19 21 21 22 22 21 23 25 24 19 16 16 16 15 16 16 15 15 16 15 15 14 15 14 13 13 13 12 10 10 10 10 10 10 10 11 11 12 13 13 12 12 12 12 12 12 12 12 12 11 10 9 9 8 7 6 6 4
26 30 26 30 32 31 30 32 27 27 25 24 27 16 17 18 13 20 15 21 15 12 15 14 19 15 12 20 16 16 13 15 18 20 22 22 21 21 20 20 21 18 19 20 22 22 23 25 23 21 16 16 17 17 16 16 16 15 15 15 15 14 14 14 13 12 11 10 10 10 10 10 11 11 11 12 12 12 12 12 12 12 11 11 11 11 11 11 10 10 9 9 8 7 8 7 6
31 22 29 31 33 32 28 29 30 26 25 27 26 28 16 24 26 13 12 13 13 18 18 16 13 10 10 19 18 17 17 16 18 21 22 21 22 22 20 21 20 19 18 20 24 22 22 23 26 25 22 21 18 16 17 17 17 15 16 16 15 15 14 13 13 13 12 11 11 11 11 11 11 11 11 11 12 11 11 11 11 11 11 10 10 10 10 10 10 9 9 8 8 8 8 6 7
30 28 29 36 30 33 35 31 24 31 31 24 32 15 21 24 22 20 13 20 13 16 17 14 12 11 16 15 17 17 19 19 20 20 21 21 21 21 21 22 17 19 18 19 24 23 22 22 24 24 25 24 24 22 19 19 17 16 16 15 15 15 15 14 13 13 12 11 12 13 13 12 12 11 11 11 11 10 10 10 10 10 10 9 9 9 9 9 9 9 8 8 7 7 7 6 5
31 26 33 36 34 31 32 38 27 28 30 26 30 27 21 25 13 15 24 23 14 12 12 9 20 19 15 16 16 18 24 22 23 21 21 21 21 21 22 21 18 17 18 18 24 21 22 22 25 25 21 24 24 21 22 24 19 17 16 15 16 16 15 14 14 12 12 12 12 13 14 13 12 12 12 11 11 11 10 10 9 8 9 8 9 8 8 8 8 8 8 7 7 7 7 7 6
27 29 31 36 38 35 35 36 28 25 22 22 23 30 26 17 15 18 17 16 16 11 14 15 11 18 14 15 16 21 28 24 23 21 21 22 21 21 21 18 18 18 17 16 17 20 20 23 24 24 23 24 21 21 22 23 20 19 16 15 16 15 15 14 13 12 12 11 11 12 13 16 14 15 13 16 11 11 12 11 11 9 8 8 8 7 7 7 7 7 7 7 8 8 9 9 9
25 29 33 36 38 37 33 34 30 38 16 19 25 25 26 29 19 22 13 15 19 16 12 11 13 10 11 15 21 27 26 24 22 23 22 22 23 22 20 19 19 19 18 18 17 18 19 19 23 22 21 23 21 22 23 22 24 20 16 15 15 15 14 13 12 12 12 11 12 12 15 16 15 16 19 17 14 16 10 10 10 10 8 8 8 7 7 8 9 8 8 9 10 11 11 13 13
28 39 38 38 36 39 31 36 29 20 21 17 19 26 22 29 25 23 14 18 20 13 14 13 11 9 12 12 19 24 25 26 24 25 25 25 24 24 22 21 21 21 21 22 18 20 20 20 21 20 20 21 21 22 23 22 22 19 17 17 18 17 14 14 17 17 13 15 12 16 18 14 15 16 15 13 16 18 15 10 11 10 9 9 9 9 9 10 10 10 10 11 11 14 15 20 18
37 37 40 41 37 35 30 30 29 25 25 15 18 20 20 26 19 21 23 20 16 16 16 15 14 12 12 15 20 24 25 23 24 25 26 25 25 22 22 22 22 22 21 21 22 20 19 20 18 20 21 20 20 21 22 21 22 19 18 18 19 13 17 18 16 16 16 16 16 16 14 11 10 13 14 15 13 10 15 13 11 13 10 11 11 10 11 11 11 12 12 12 14 15 19 20 20
36 37 41 42 33 34 32 32 28 26 15 16 20 21 21 27 29 21 21 24 18 21 24 18 16 16 17 19 21 24 24 24 24 25 25 23 21 20 20 22 22 21 20 21 22 21 21 20 19 18 19 20 20 19 19 19 18 18 17 18 18 18 18 17 15 14 15 13 13 11 10 10 10 11 10 14 14 16 16 11 12 13 11 12 12 12 12 13 13 14 14 14 12 13 18 18 11
34 44 44 38 35 37 34 32 31 26 21 20 24 23 26 27 31 19 20 24 20 21 25 23 18 19 20 21 23 24 25 25 25 25 22 22 20 20 19 20 21 22 22 21 22 22 20 19 19 19 18 19 19 18 17 18 17 17 16 17 18 17 17 15 15 13 13 13 12 11 12 11 11 13 14 14 14 14 15 15 17 16 16 16 16 14 15 18 18 17 18 19 15 13 9 8 9
34 40 37 36 35 38 35 34 30 28 23 24 24 30 34 25 29 28 24 26 23 27 32 27 19 11 21 23 24 23 24 24 25 25 23 21 21 19 18 19 18 19 21 21 22 21 20 20 19 19 19 18 18 18 18 18 17 17 16 16 17 17 16 15 14 14 14 13 12 12 11 11 10 15 15 13 16 16 16 16 17 16 16 14 19 16 17 15 17 18 16 17 17 7 7 7 9
45 39 37 39 40 39 31 38 34 28 32 28 27 28 31 27 32 27 25 28 25 25 13 16 13 12 18 21 24 23 24 24 25 25 23 22 22 20 19 19 21 22 22 20 20 20 19 17 18 18 19 20 18 18 18 19 18 16 16 16 17 17 16 15 14 14 14 13 12 11 11 11 10 10 14 14 14 17 21 22 22 21 19 19 17 20 18 16 15 18 8 7 7 8 8 9 7
42 47 36 37 36 41 35 33 33 34 31 33 30 26 34 27 33 26 28 26 29 25 15 12 12 13 18 22 24 25 25 25 23 21 20 20 20 20 19 19 20 18 19 20 21 20 20 20 20 19 20 19 18 18 17 18 16 16 15 15 16 17 17 17 15 14 13 14 12 11 10 10 10 10 10 11 9 8 7 7 9 9 9 11 18 12 11 10 10 8 8 8 9 10 10 9 10
46 52 37 38 38 38 37 38 34 32 34 34 29 33 31 29 30 24 28 25 26 24 15 15 15 16 20 20 22 22 21 20 20 20 18 19 18 18 18 18 18 19 19 19 20 20 20 20 21 20 19 20 19 18 18 18 17 17 16 16 16 14 17 15 13 13 14 12 12 11 10 9 9 8 8 9 8 7 7 7 9 9 11 10 11 8 9 8 9 9 9 9 8 8 8 9 9
46 43 38 38 41 39 38 39 39 36 34 30 33 34 31 31 26 34 29 25 27 22 18 18 18 18 19 20 21 21 20 20 20 20 20 18 18 19 19 19 19 20 19 19 19 20 20 22 22 21 21 22 20 18 18 18 17 17 17 17 15 17 14 12 12 14 11 12 12 11 9 9 7 8 8 8 8 7 7 8 7 7 9 8 8 9 9 10 9 10 9 10 11 9 10 11 9
36 40 41 38 41 40 34 40 41 40 39 32 36 35 38 28 31 36 26 26 26 22 21 19 20 20 19 18 20 20 19 20 22 20 20 18 19 21 20 19 18 20 18 18 19 20 20 21 22 21 20 18 19 19 17 17 16 16 18 18 16 17 14 14 15 12 12 11 10 9 9 9 8 8 7 7 8 9 8 9 11 8 9 8 8 9 9 10 9 9 10 10 10 12 11 11 12
40 39 40 41 39 44 39 37 39 41 47 41 34 36 34 30 34 37 25 25 23 24 25 26 23 20 22 19 20 19 19 21 23 21 22 21 23 23 22 23 20 19 20 19 20 20 21 21 21 21 21 20 18 18 17 18 17 17 16 17 15 14 13 13 14 11 10 10 10 9 9 8 9 9 8 9 8 8 8 9 9 13 10 7 9 9 10 9 9 11 11 9 9 9 10 11 11
38 43 47 39 42 56 45 50 39 40 49 37 34 38 37 38 38 30 29 23 19 20 24 26 25 23 21 21 21 21 21 22 23 24 22 23 21 21 22 20 21 20 20 20 21 20 21 21 22 21 21 20 19 18 19 18 16 18 17 15 15 14 15 13 13 12 10 10 10 9 9 9 9 9 9 10 11 9 10 10 8 9 9 9 8 9 9 8 8 7 7 8 10 9 11 11 12
34 39 44 34 40 51 48 48 39 40 46 34 33 48 41 42 37 32 23 25 23 23 25 27 26 24 22 21 22 20 20 22 23 23 23 23 21 21 21 20 21 21 21 21 19 21 22 21 21 21 21 21 19 19 17 18 16 17 16 16 15 16 15 14 12 11 11 11 10 10 9 10 9 9 10 10 11 12 10 9 8 9 9 8 8 8 9 9 9 9 9 9 9 10 12 12 10
44 38 41 43 40 49 45 57 37 44 37 35 33 44 41 37 35 33 27 28 28 31 28 27 27 23 22 23 22 22 20 21 22 22 21 21 21 21 22 21 20 21 19 21 21 21 20 22 22 22 21 20 20 19 18 17 17 17 17 16 16 14 14 14 13 12 12 10 10 11 10 9 9 10 11 10 9 10 10 10 9 9 9 8 8 9 9 8 9 10 12 10 10 10 12 10 12
40 46 54 40 47 42 39 40 41 49 44 37 36 45 43 34 34 34 34 32 30 35 32 30 29 26 23 22 23 22 21 20 20 21 20 21 21 22 22 22 21 21 20 23 22 22 22 21 21 21 21 21 21 19 17 16 16 14 15 13 14 13 14 13 13 12 11 11 10 10 10 10 10 10 11 10 10 10 9 9 9 10 9 8 10 9 8 9 10 10 10 12 10 11 11 13 13
43 45 35 46 47 46 39 42 41 47 49 36 43 48 35 35 35 36 33 35 32 33 31 28 25 23 25 24 22 21 22 21 22 23 22 22 21 21 22 21 21 21 20 21 22 23 22 22 22 21 22 23 21 19 17 16 15 15 14 14 14 13 13 13 12 12 11 10 10 10 10 10 10 10 11 13 8 10 12 10 10 9 9 9 10 9 9 9 8 9 10 11 10 9 10 12 13
44 44 50 44 48 48 54 34 43 41 44 42 45 54 37 29 31 38 33 30 29 29 28 26 27 27 26 25 24 25 24 24 25 25 23 21 23 21 20 20 21 21 20 21 22 24 23 22 22 22 23 23 21 20 18 17 17 15 15 15 12 14 12 12 12 11 12 10 10 10 10 10 10 9 11 9 9 14 9 10 11 10 8 9 10 9 9 9 9 8 9 10 10 9 9 16 15
46 46 47 52 45 48 43 52 37 39 43 47 43 46 41 37 37 29 24 26 28 28 28 27 29 28 28 26 26 25 26 27 25 25 24 23 22 22 21 22 22 21 21 21 22 24 23 23 22 22 23 22 20 19 18 17 16 15 14 14 14 13 13 12 11 11 11 10 9 9 10 10 12 9 11 12 9 10 10 11 10 9 8 8 7 6 9 9 8 9 9 8 9 10 10 11 15
42 41 44 41 45 47 51 43 40 38 40 46 48 53 44 40 40 35 27 26 29 29 27 27 28 29 27 26 25 27 27 25 24 23 25 24 23 22 21 23 24 21 21 23 23 23 24 24 22 24 23 22 21 19 20 19 18 18 17 16 15 14 13 13 12 12 11 11 9 9 11 9 10 12 9 9 9 9 9 10 10 8 8 7 7 8 8 9 8 7 8 9 9 12 11 18 16
41 39 36 40 43 43 39 41 40 42 43 43 44 47 42 39 41 40 33 31 31 30 29 28 27 27 27 27 27 27 26 25 21 24 25 24 23 23 22 21 22 21 22 22 25 25 25 28 26 25 24 23 23 23 22 21 21 20 17 17 16 15 14 12 12 10 9 10 11 11 11 11 9 10 10 9 10 9 9 9 9 9 7 8 8 8 8 8 7 7 7 8 9 11 12 15 17
38 38 39 42 42 46 44 40 38 44 49 41 40 41 40 38 40 41 40 36 35 34 32 30 29 28 28 27 26 25 24 20 21 23 24 24 25 22 21 22 20 24 23 23 26 27 26 27 26 26 25 24 22 21 20 21 19 19 18 18 16 15 14 14 15 11 12 12 11 11 11 10 10 10 9 9 9 9 8 8 8 8 7 8 9 9 8 7 7 7 6 10 11 12 13 15 18
40 41 40 43 45 40 38 41 36 42 47 46 38 42 41 39 37 35 39 38 38 37 35 34 33 30 29 27 25 26 24 24 26 25 24 25 24 23 23 22 23 23 24 26 25 26 27 27 25 25 24 24 23 21 22 21 17 15 16 16 16 16 12 12 15 14 11 11 11 10 10 10 9 10 10 9 9 8 8 7 8 9 7 7 11 7 7 7 7 8 9 9 13 14 14 11 15
42 42 41 42 40 42 44 47 43 42 50 36 37 40 37 36 36 37 37 42 34 30 32 32 31 33 31 28 26 27 26 28 27 27 26 26 25 25 23 24 26 22 25 24 27 29 28 24 24 24 25 24 22 20 19 18 15 14 13 15 13 12 16 15 14 13 13 12 12 10 11 11 11 10 10 9 8 9 8 7 7 7 8 8 7 7 8 8 8 9 9 10 10 14 13 13 9
42 41 39 39 34 39 40 41 49 39 32 32 32 39 38 37 38 43 37 38 37 34 33 34 34 30 30 28 29 26 28 28 29 29 27 25 26 27 25 24 25 25 27 28 29 28 25 26 28 25 24 21 21 20 22 19 20 19 21 20 18 19 17 15 16 16 13 13 12 10 12 11 11 10 9 8 9 9 8 8 8 9 9 8 8 9 10 10 10 11 11 10 10 10 13 13 12
43 41 33 35 34 33 37 37 41 40 38 41 36 43 45 35 38 40 33 39 40 33 33 34 35 33 34 33 31 26 27 27 29 29 29 27 27 27 25 26 25 26 28 29 26 25 24 26 26 19 20 20 23 22 22 22 21 22 21 21 21 18 18 18 19 19 16 15 13 10 10 11 11 8 8 9 9 9 9 9 9 9 9 9 10 10 11 12 12 13 12 11 12 11 11 13 14
41 42 35 35 35 31 33 32 37 40 45 40 41 43 44 36 40 38 35 33 34 33 34 34 34 36 36 33 28 28 27 28 28 27 28 27 27 28 27 26 26 26 27 26 25 24 26 27 25 23 20 18 21 22 22 21 20 21 21 20 21 22 21 17 16 16 16 16 14 11 11 10 9 9 9 8 9 9 10 10 10 10 10 11 11 12 13 12 14 14 13 12 12 11 9 14 12
44 25 36 34 32 36 38 37 36 35 29 29 36 43 45 42 39 40 39 36 36 36 37 36 35 32 33 31 29 27 30 28 29 31 30 28 28 28 29 27 25 28 25 26 26 26 21 25 25 25 23 23 22 23 24 24 22 22 20 19 19 20 21 20 20 18 15 14 14 11 11 11 9 8 8 9 9 10 10 10 10 11 12 12 13 14 14 13 14 15 14 13 12 12 10 11 11
34 28 32 35 27 28 32 37 37 33 28 35 36 35 44 45 38 33 39 41 40 40 40 39 36 34 32 32 31 30 29 28 28 29 31 31 29 28 28 27 25 25 25 26 27 25 23 27 27 25 23 24 22 24 25 24 22 23 22 19 20 18 21 20 21 20 20 15 14 12 11 10 9 8 10 10 10 11 11 11 11 12 13 13 15 16 15 17 16 15 14 14 13 14 13 11 11
32 30 28 30 29 28 29 34 36 32 35 36 36 39 43 41 37 37 34 41 44 44 40 37 36 34 33 33 31 30 28 28 29 28 29 28 26 27 26 25 24 25 23 24 22 24 28 27 26 28 25 25 25 25 25 23 21 21 21 18 19 21 23 21 19 20 18 17 15 13 13 11 11 10 10 11 11 12 12 13 14 15 14 14 16 16 16 17 16 17 17 16 15 15 14 13 13
28 27 29 32 35 33 28 30 33 32 38 39 35 37 38 42 34 42 43 46 39 34 34 34 36 36 34 32 30 29 30 30 31 29 28 28 26 25 27 25 27 25 24 24 25 25 25 26 28 29 29 26 25 26 24 23 21 21 20 20 23 24 23 23 23 20 20 16 17 15 14 13 11 12 11 12 12 13 13 14 14 15 15 14 15 15 15 17 17 17 18 17 17 16 16 15 15
37 35 33 34 34 34 32 31 29 40 42 37 38 40 37 42 33 38 41 34 31 32 33 37 36 37 36 32 33 31 30 31 32 31 30 27 27 26 28 28 28 27 27 28 26 25 28 27 29 30 28 25 25 26 24 23 22 21 20 21 24 25 26 26 25 22 20 19 18 17 15 14 14 13 12 13 12 13 14 15 15 15 15 14 15 15 16 17 17 17 16 16 17 16 15 15 14
43 36 35 38 40 45 43 39 40 40 44 32 37 39 39 46 36 28 32 38 31 32 33 36 36 37 35 34 34 30 31 30 32 32 31 31 30 30 27 29 27 28 29 28 28 27 28 28 29 28 29 28 28 27 24 22 22 21 22 22 22 23 24 24 24 23 21 20 19 17 16 15 14 14 13 14 14 13 15 15 14 14 15 15 16 17 17 17 17 17 17 17 16 15 15 14 15
41 44 43 43 44 40 35 39 37 37 38 27 29 37 46 33 37 35 29 28 32 32 32 31 35 35 36 35 33 32 32 31 32 31 32 32 32 32 29 31 29 29 28 29 29 28 27 27 26 27 29 29 27 27 26 24 23 22 21 23 26 26 25 23 22 22 21 20 19 17 15 16 15 13 15 14 15 14 15 15 15 15 16 17 17 17 17 17 16 18 17 17 16 16 16 15 16
46 38 44 39 41 51 40 45 43 39 32 32 24 36 45 39 30 27 36 30 24 30 32 29 31 35 34 34 35 34 32 31 33 32 32 32 33 32 30 32 28 30 27 29 29 28 28 28 31 31 31 28 27 27 27 26 25 23 22 25 26 25 26 22 21 20 22 21 20 19 16 15 14 15 16 16 16 16 16 16 16 16 16 17 17 17 18 17 17 17 17 16 16 15 15 16 16
39 39 35 40 39 25 33 28 31 32 31 31 33 34 27 35 18 14 22 34 23 24 28 28 30 32 33 34 35 33 33 32 32 30 30 30 31 32 30 30 30 30 30 30 28 29 28 29 31 32 30 27 28 27 27 27 26 24 23 23 25 25 24 21 22 20 19 18 17 19 17 14 14 15 16 17 16 17 17 17 17 17 17 17 17 17 17 17 16 17 17 16 16 15 16 16 16
43 42 47 38 29 28 23 14 14 8 26 33 23 31 30 18 16 16 19 28 28 26 27 30 29 30 31 32 32 31 31 32 30 31 30 31 30 31 32 31 30 31 33 32 30 30 27 29 32 32 29 30 30 28 26 24 24 23 24 25 23 22 23 22 24 21 20 19 16 15 15 15 16 16 18 17 17 17 17 17 18 18 17 17 17 17 17 17 16 16 17 16 16 15 15 15 15
42 47 41 33 31 25 29 28 22 23 30 26 30 32 32 32 30 27 23 26 27 28 27 29 28 29 31 31 30 31 31 29 30 30 30 32 32 34 33 33 31 31 31 30 30 28 28 28 30 34 33 33 30 27 27 24 24 25 25 24 24 24 24 22 23 23 20 19 18 16 16 17 16 18 19 17 18 18 17 16 18 18 17 17 17 17 17 17 16 16 16 15 15 14 15 15 15
35 35 28 44 38 34 33 28 29 29 31 29 29 28 31 34 26 25 27 30 28 28 28 29 31 30 28 28 29 30 30 28 30 30 31 33 32 34 34 33 33 32 29 29 30 32 29 26 27 31 32 29 27 26 25 27 26 25 26 26 26 25 23 23 23 23 19 20 20 18 17 17 18 18 19 19 19 19 18 18 18 18 18 18 17 17 16 16 15 16 15 16 14 14 15 15 15
31 31 40 32 32 33 35 35 24 32 26 24 27 29 33 33 32 24 24 27 28 29 29 29 30 30 30 29 30 31 30 28 30 31 30 32 33 34 35 34 34 34 31 30 30 30 30 29 28 29 28 28 27 27 27 27 26 24 26 26 24 26 24 24 24 22 20 20 20 18 18 18 19 19 19 19 19 19 18 18 18 19 19 18 18 17 16 16 15 15 15 15 15 15 16 16 16
38 40 41 41 40 30 29 32 33 31 30 26 23 27 28 26 26 25 25 24 26 28 29 28 29 29 30 27 28 28 29 29 30 31 30 31 32 32 32 32 33 31 28 28 32 33 31 27 29 29 31 32 29 29 27 27 26 25 26 27 25 25 23 23 21 21 20 20 18 17 18 19 20 19 20 19 19 19 19 19 20 20 20 19 18 17 16 15 15 15 15 15 15 16 16 17 16
34 38 41 38 40 44 37 33 34 35 35 28 26 28 16 18 24 23 22 24 23 26 27 27 28 30 28 28 26 26 28 28 28 28 28 31 31 31 31 33 30 31 30 31 32 31 29 29 31 29 32 31 31 30 27 27 25 26 27 27 26 24 26 23 22 20 20 20 19 17 19 20 19 20 20 20 21 19 19 19 20 20 19 19 18 18 16 15 16 16 15 14 15 16 16 16 15
Wind_Speed
15 6 7 5 7 8 8 8 7 9 9 12 5 6 4 4 3 11 5 8 9 6 3 2 3 3 6 9 7 11 15 12 12 7 6 5 5 10 8 9 15 15 15 15 15 14 15 14 14 14 13 13 13 12 12 11 11 10 10 10 10 10 11 11 11 12 11 10 10 11 11 9 10 11 11 10 10 10 10 10 10 10 9 11 13 13 13 14 14 14 14 13 13 13 13 11 11
10 7 6 5 7 7 6 3 8 11 9 8 4 5 8 4 12 1 6 4 8 6 2 3 4 7 2 6 3 13 14 12 8 6 7 8 10 8 10 12 14 15 15 15 14 14 14 14 13 14 14 14 14 13 12 12 11 10 10 10 10 10 11 11 12 12 11 10 11 11 10 10 10 11 11 12 11 10 8 10 11 10 10 11 12 14 14 14 14 14 12 12 12 12 11 10 8
10 8 7 6 7 7 9 7 10 11 8 10 6 8 6 9 1 4 5 3 3 4 2 5 2 4 6 8 4 6 3 4 6 7 7 11 11 8 12 13 13 14 16 13 13 13 13 14 13 14 15 15 14 13 13 12 11 11 10 9 9 10 10 11 11 11 11 10 10 10 10 10 11 12 12 12 12 10 9 9 11 11 11 11 11 12 13 12 13 12 12 12 10 10 9 8 6
11 8 7 5 7 6 8 8 10 11 8 7 6 5 9 3 5 2 1 4 3 1 3 5 5 3 9 9 1 13 6 5 4 5 7 8 8 12 12 13 14 13 12 12 13 13 12 14 14 14 15 15 15 14 13 13 12 11 10 9 9 9 10 10 12 11 11 10 11 10 10 11 12 12 12 11 11 11 10 9 10 10 10 10 10 11 11 11 11 11 11 10 10 8 7 5 5
12 7 7 6 7 7 8 10 10 10 11 6 8 6 7 2 5 3 4 2 4 4 5 6 2 3 4 9 3 3 6 7 3 6 8 9 14 13 13 14 12 12 12 13 13 13 14 18 14 15 15 16 15 14 14 13 12 11 10 9 9 9 9 10 12 10 11 10 10 10 10 11 12 12 12 12 11 10 10 11 10 10 10 9 9 9 10 10 11 11 10 9 8 6 5 4 3
11 8 8 7 6 6 7 8 10 13 11 3 7 5 10 3 4 5 6 3 3 3 2 1 5 6 7 8 5 3 2 5 4 7 9 9 13 15 15 12 11 11 12 12 12 12 14 17 15 16 15 15 15 15 14 13 12 11 10 9 9 9 9 10 12 12 11 11 10 10 11 11 12 12 12 11 11 10 10 9 10 10 9 10 10 10 10 10 10 10 9 8 6 5 3 2 3
7 7 8 9 9 6 8 11 12 9 9 4 5 11 10 7 1 10 8 8 1 4 4 6 1 3 8 6 7 8 7 5 3 6 9 13 15 14 14 11 11 12 12 11 11 12 16 16 15 14 15 15 16 15 14 13 12 12 11 11 9 9 9 10 11 11 11 10 10 10 11 10 10 11 11 11 10 10 10 10 9 9 10 9 9 10 9 9 9 9 8 7 5 4 3 1 2
6 5 6 8 8 6 9 11 13 10 3 10 7 8 7 2 6 6 2 11 6 2 3 5 2 2 6 6 2 4 8 9 10 12 15 13 14 15 12 11 12 12 12 10 11 13 17 14 14 14 15 16 15 14 14 13 12 12 12 11 10 9 9 9 10 10 10 10 10 9 9 9 9 9 9 10 10 9 10 10 9 9 9 9 9 9 9 8 9 7 7 6 5 4 3 1 0
7 7 4 7 9 7 10 12 12 16 2 6 5 7 4 1 5 4 1 2 5 1 4 5 8 5 4 7 7 7 7 10 12 12 13 15 14 13 9 11 11 11 12 10 13 14 15 14 13 13 16 15 15 15 13 13 12 12 12 12 10 9 9 9 10 10 10 8 8 8 8 8 8 8 8 9 10 10 10 9 9 9 9 9 9 9 8 8 8 7 7 6 6 4 3 1 0
9 8 8 6 7 12 14 12 14 13 15 10 7 9 11 8 7 8 2 5 4 7 8 4 1 5 8 6 6 5 6 8 11 12 13 13 14 12 11 11 12 13 11 13 13 13 12 15 12 12 15 15 14 14 14 12 11 11 12 12 11 9 9 9 9 9 9 8 7 7 6 7 7 7 8 9 9 10 9 9 9 9 8 8 8 8 8 7 8 7 7 6 6 4 3 1 1
9 6 8 11 12 12 14 13 14 14 20 10 8 4 7 4 7 3 5 5 3 4 5 2 8 3 5 8 5 5 6 8 10 12 13 13 12 12 11 10 12 11 11 13 12 12 13 13 15 13 13 13 12 13 13 12 12 12 12 11 10 10 8 8 9 10 9 7 7 7 6 6 7 7 8 8 9 9 9 8 9 9 9 8 8 7 7 7 6 7 6 6 5 5 3 3 1
7 11 9 12 13 12 13 14 14 11 15 14 13 8 6 10 4 10 7 12 2 2 5 4 6 3 4 5 4 6 7 8 9 11 13 13 11 12 11 9 12 11 12 12 12 11 12 13 12 14 13 13 14 14 13 13 13 12 12 11 10 9 9 8 9 9 9 7 6 6 5 5 6 7 8 8 8 8 8 9 8 8 8 7 7 7 7 6 6 6 6 6 5 5 5 4 4
10 9 13 12 12 14 14 15 13 10 12 14 12 13 5 11 15 7 4 6 5 10 8 7 2 0 1 8 5 8 9 8 10 12 12 11 11 10 10 11 11 11 10 12 13 12 13 13 13 12 14 17 14 14 14 14 14 13 12 11 10 9 8 8 8 9 9 8 7 7 6 6 6 7 8 8 8 8 7 8 8 8 7 7 6 6 6 6 6 6 6 6 5 5 4 4 4
10 10 11 14 14 15 16 15 12 12 11 10 16 6 8 12 12 11 5 11 6 2 8 5 3 3 8 2 5 6 8 10 12 12 10 12 10 10 12 11 11 11 11 11 13 11 12 12 12 13 14 14 13 14 15 15 14 13 12 11 10 9 8 8 8 9 9 8 7 7 7 6 6 7 6 6 7 7 6 7 7 7 7 7 6 6 5 5 5 5 5 5 4 4 4 3 3
12 9 11 13 13 14 16 15 14 13 13 16 14 11 11 13 7 8 13 14 2 5 4 2 8 8 6 4 3 2 11 12 13 12 11 12 12 12 13 11 10 9 9 10 14 12 12 12 13 13 12 13 13 11 11 14 16 14 12 11 11 10 8 8 9 9 9 9 8 7 7 7 6 7 7 6 6 6 7 6 6 6 5 6 6 5 5 5 4 5 4 4 4 4 4 4 4
10 9 10 13 16 17 12 16 15 11 7 12 13 19 17 10 7 8 8 6 4 3 5 4 4 7 6 2 8 10 16 14 13 12 11 13 12 11 11 10 9 9 8 8 9 11 10 13 12 12 11 13 11 11 11 13 14 15 13 12 11 10 9 8 9 9 9 9 8 9 9 8 8 7 8 7 7 7 6 7 6 5 5 5 6 5 5 5 5 4 5 4 6 6 6 7 7
9 10 12 13 17 17 14 14 14 13 7 10 15 15 14 13 10 12 6 8 10 7 4 3 5 1 4 6 11 17 15 14 14 14 13 11 10 9 9 8 8 8 6 8 8 9 10 10 14 11 12 13 12 11 11 12 12 15 12 12 11 10 9 9 8 9 9 8 9 10 11 8 7 7 9 7 9 7 7 6 7 5 6 6 5 5 5 5 6 6 5 7 7 9 9 10 10
11 14 14 17 15 20 14 18 12 9 9 9 11 16 13 15 14 11 6 10 12 3 6 5 2 2 4 3 11 13 15 16 15 15 13 11 9 9 8 8 8 8 8 8 8 9 10 10 12 11 10 12 12 10 10 10 10 12 10 9 8 9 9 10 9 8 8 7 10 9 8 6 6 7 7 9 8 8 7 7 8 7 7 7 6 6 7 7 8 8 8 9 9 11 12 7 8
15 13 16 18 17 15 17 15 17 11 13 8 8 12 10 15 11 8 10 12 9 8 8 6 3 1 2 4 10 12 14 14 14 13 14 12 11 11 8 8 8 9 9 9 8 9 8 8 9 10 11 11 12 11 10 10 11 9 9 9 8 9 9 10 8 8 8 7 8 7 6 4 4 5 6 7 6 8 8 9 8 10 8 9 8 7 8 8 9 9 10 10 11 11 8 7 7
17 15 17 18 18 19 18 19 16 16 10 5 9 12 13 12 15 8 9 13 11 12 11 9 7 7 6 7 9 11 13 14 13 13 13 12 10 10 9 10 10 9 9 8 9 8 10 9 10 9 10 11 10 9 8 9 8 8 8 8 7 8 8 8 7 7 7 6 5 4 4 4 4 4 5 7 9 6 7 9 10 9 9 8 10 8 9 10 11 12 12 12 10 8 7 7 3
14 18 18 16 19 20 20 19 19 17 12 9 11 13 15 14 17 9 7 13 9 8 12 14 10 11 8 8 10 11 12 13 14 13 12 12 11 9 8 9 9 10 9 9 8 9 10 10 10 9 10 11 10 8 8 7 8 7 7 7 8 7 8 7 6 6 5 5 5 4 5 4 4 5 5 5 5 5 6 6 6 6 7 7 10 6 6 5 9 6 8 9 6 6 3 1 0
14 20 22 22 20 21 20 21 20 18 14 14 14 18 19 9 16 17 12 13 10 9 13 16 12 3 6 9 10 11 12 13 14 13 12 12 10 9 8 8 9 10 9 10 10 11 10 10 9 9 9 9 8 8 7 7 7 6 7 7 8 7 7 6 6 5 5 6 5 4 4 4 4 6 5 5 5 3 5 6 6 6 5 6 7 5 3 4 7 5 5 7 7 1 1 1 2
18 20 21 24 23 21 18 19 19 18 17 17 16 16 18 14 17 17 12 16 9 15 4 11 7 5 5 8 9 11 12 12 13 13 13 12 10 8 9 8 8 9 9 9 9 9 9 9 10 10 9 8 9 8 7 7 6 6 5 6 7 6 5 6 5 5 6 6 5 4 5 4 4 4 5 4 6 8 9 7 5 5 4 3 6 3 5 7 4 7 3 1 1 2 2 1 0
21 18 21 24 22 24 22 18 19 21 20 20 15 15 21 16 20 12 14 15 16 16 8 3 6 7 6 9 10 11 11 12 13 12 11 12 10 10 10 10 10 9 10 11 11 9 9 10 10 10 9 9 7 8 8 7 7 7 7 7 7 8 7 7 6 5 5 5 5 4 4 3 4 3 4 5 4 3 2 2 4 4 4 6 9 7 5 4 2 1 2 1 1 3 2 2 2
23 23 23 20 22 23 22 22 21 21 22 20 18 19 20 18 17 13 17 16 16 16 7 8 8 8 7 6 8 10 10 12 12 13 11 9 9 10 10 8 9 9 9 11 11 10 10 9 11 11 10 9 8 8 8 7 7 7 7 6 7 8 7 6 5 6 6 5 4 4 4 3 2 3 2 3 3 1 2 2 1 3 5 3 4 1 1 2 1 3 2 1 2 1 2 1 2
23 26 24 19 23 26 22 21 24 23 15 17 21 21 19 20 17 19 18 16 15 14 9 10 10 10 7 7 9 10 11 12 13 13 12 10 10 11 11 9 10 10 7 8 10 9 11 11 12 11 10 9 8 8 7 7 7 7 7 8 6 8 6 5 6 5 5 4 4 4 3 2 2 2 2 2 3 2 2 0 0 1 3 1 2 3 2 3 2 2 2 2 2 2 2 3 1
20 24 26 22 25 26 21 26 26 26 21 21 20 19 23 18 15 14 16 16 15 13 10 11 11 10 8 8 8 10 11 13 14 12 11 10 11 12 12 10 9 10 9 9 9 9 10 10 11 11 10 9 8 8 7 8 7 8 8 8 7 7 6 6 6 5 4 4 4 3 3 2 2 1 1 2 2 3 2 2 4 1 1 1 1 2 2 1 3 2 3 3 3 3 3 3 3
24 21 26 27 21 26 24 23 25 23 22 27 22 20 23 19 18 17 13 13 16 7 12 15 14 11 9 9 9 10 10 12 12 12 14 13 11 11 12 11 10 10 11 9 8 9 11 12 12 12 9 9 8 8 7 8 8 8 8 8 6 6 5 6 6 5 4 4 3 3 2 2 1 0 1 2 2 2 2 1 2 5 3 1 1 3 3 3 3 4 2 3 1 1 2 3 3
22 27 26 25 26 25 27 28 24 22 21 25 20 23 23 21 22 19 17 12 11 10 14 15 16 13 11 11 10 10 11 12 12 12 13 12 11 11 13 10 10 10 9 11 9 11 12 11 11 11 10 10 10 9 9 9 7 7 7 6 6 6 7 5 5 4 3 3 3 2 2 2 2 1 2 3 5 3 2 0 2 2 2 1 2 2 3 1 1 1 1 1 1 2 1 4 3
21 24 23 22 19 22 28 29 26 22 22 23 18 20 19 22 24 20 14 13 14 14 14 15 14 13 12 11 10 10 10 12 13 12 12 12 12 12 13 12 12 10 10 10 10 12 11 9 9 9 10 10 10 9 8 8 8 7 6 6 7 7 6 5 4 4 4 4 3 3 2 3 2 2 3 3 4 4 0 2 2 1 0 3 2 1 1 2 2 1 3 0 2 1 2 2 2
19 16 17 17 17 17 27 28 25 25 20 22 21 19 18 20 23 20 16 16 15 14 14 16 15 13 11 10 11 11 12 11 13 13 13 13 12 11 14 13 13 10 9 10 12 12 12 11 8 8 10 11 10 10 10 9 8 7 7 7 6 7 5 4 4 4 5 3 3 3 3 2 2 3 3 1 1 3 1 4 4 2 3 2 2 2 1 2 1 3 3 3 1 2 3 4 4
16 15 24 19 19 19 23 24 24 25 21 24 23 19 19 20 20 20 19 19 18 20 20 18 17 14 12 10 11 11 11 12 12 13 13 14 13 12 13 14 13 11 12 13 12 12 12 11 12 10 12 12 11 11 10 8 8 6 7 7 6 6 5 5 5 4 3 3 3 3 2 2 3 3 3 1 2 1 2 1 1 2 3 3 2 3 2 1 3 3 4 4 2 2 2 6 1
18 21 18 21 21 21 18 26 26 31 24 23 26 20 17 18 20 18 20 23 20 20 19 18 16 15 13 12 11 11 11 12 12 14 14 13 12 12 12 13 12 13 12 13 13 13 13 13 12 12 13 13 12 11 9 8 7 8 7 7 6 6 5 5 4 4 4 3 2 3 3 2 3 2 3 5 2 1 5 1 3 3 4 3 2 2 2 2 2 3 3 3 3 2 3 5 4
18 18 19 22 25 22 22 20 25 27 28 21 28 24 21 15 17 21 23 13 19 17 17 16 15 14 14 13 12 12 12 13 13 14 15 13 12 13 12 12 13 13 13 13 13 13 13 12 12 11 11 12 11 9 9 8 7 7 7 6 6 6 5 4 4 4 3 3 3 2 2 2 3 3 4 2 3 6 1 2 4 4 3 3 2 2 2 2 3 2 2 1 2 3 1 6 5
20 20 21 24 24 29 26 22 20 22 25 28 26 26 25 22 21 16 10 16 18 17 15 15 15 15 15 14 13 14 13 14 14 13 15 13 15 14 12 12 13 13 11 13 13 14 13 12 11 12 12 12 11 10 8 8 8 7 5 5 7 6 5 4 4 4 3 3 2 3 3 4 4 0 5 5 3 3 4 4 3 4 3 2 1 1 2 3 3 1 2 3 0 3 1 5 6
25 25 22 22 21 23 23 23 24 24 22 25 29 24 25 24 23 21 15 13 15 15 15 14 15 16 15 14 13 13 13 14 13 14 16 14 13 13 12 13 13 12 12 13 14 14 13 13 12 12 12 12 10 10 8 8 8 8 8 8 7 6 5 5 3 3 3 3 3 3 4 1 3 5 2 3 2 3 3 4 4 2 2 2 1 0 2 2 1 1 1 1 3 2 2 8 6
26 24 20 20 22 23 23 26 25 25 22 25 25 28 27 20 25 25 18 17 17 18 18 16 15 15 14 14 14 14 14 14 13 14 16 15 14 13 12 12 12 11 13 14 15 15 14 14 13 14 12 12 11 11 10 9 9 8 8 7 7 6 5 5 4 3 3 4 3 4 4 4 1 1 2 2 2 3 4 3 3 3 2 2 2 1 0 1 0 2 2 2 2 3 5 7 8
24 20 22 21 23 22 25 23 23 23 24 22 23 24 25 22 24 26 24 22 21 20 19 17 16 15 13 15 15 14 13 10 13 14 15 16 13 14 12 11 12 13 13 14 16 16 15 15 14 13 12 12 12 10 8 8 8 8 8 8 7 6 6 5 5 4 3 5 4 5 4 2 4 4 3 3 4 4 3 3 3 2 2 3 3 1 1 1 2 2 0 3 2 4 5 7 7
24 19 20 20 19 21 24 25 24 23 25 23 21 23 22 24 23 22 24 23 21 21 20 18 17 16 14 14 14 14 13 12 15 15 15 14 15 15 12 10 12 13 15 15 15 15 15 14 13 12 10 11 10 10 8 8 8 7 7 7 7 6 4 4 6 6 4 4 4 4 3 4 4 4 4 3 2 3 3 3 2 2 2 1 4 2 2 2 1 1 4 3 4 2 2 4 8
20 20 18 19 20 21 17 24 24 24 20 18 21 23 18 21 22 23 22 24 19 19 20 20 18 18 16 16 14 14 15 15 16 16 16 16 15 15 13 12 13 13 13 14 15 16 13 12 14 11 11 11 11 10 8 8 7 7 6 7 6 6 6 7 7 6 6 6 5 4 4 4 5 5 4 2 2 3 2 2 1 2 1 2 1 3 1 1 2 2 2 2 4 5 4 3 3
22 23 20 16 18 21 18 16 25 26 19 16 19 18 16 19 20 20 21 23 23 20 21 21 19 15 15 14 17 16 16 16 16 18 16 16 16 16 15 14 14 13 15 15 14 13 11 15 14 12 11 9 8 9 10 9 9 10 9 9 8 9 6 6 7 5 5 5 6 4 3 4 5 4 3 2 1 1 2 2 2 1 1 1 2 2 1 1 2 2 2 1 1 1 5 3 2
18 26 19 19 21 20 23 23 26 18 15 18 21 15 17 17 21 21 17 18 23 19 20 21 21 18 16 18 19 16 15 16 18 18 18 17 16 16 16 16 14 15 16 15 14 14 13 12 8 6 8 9 9 13 13 10 10 10 10 9 8 7 6 7 8 8 7 6 5 3 2 5 6 3 0 1 2 1 0 2 2 1 1 1 1 2 2 2 2 3 2 2 3 3 4 4 4
19 19 19 22 23 19 20 21 17 16 17 18 23 19 13 15 22 19 16 19 21 17 20 20 20 19 20 19 17 15 16 16 17 16 16 16 17 17 16 16 16 15 16 14 12 12 12 9 12 12 10 9 11 13 14 10 11 10 10 10 9 8 7 5 4 6 7 7 6 5 4 5 4 2 1 0 0 1 1 2 1 1 1 2 2 2 2 2 3 3 2 3 3 3 2 4 4
18 14 22 22 20 23 23 23 19 14 15 16 21 17 16 16 16 17 19 22 19 20 21 21 19 20 20 19 17 16 17 17 16 18 19 18 17 18 18 17 15 15 14 14 11 8 13 14 12 13 12 11 11 13 13 10 11 11 11 10 8 7 8 9 9 7 6 6 6 5 5 5 2 1 1 1 1 1 2 2 2 2 2 3 3 3 3 3 3 4 4 4 4 3 2 3 3
13 15 19 22 16 16 21 20 17 15 13 15 16 21 16 16 17 18 24 25 23 24 24 23 22 21 20 19 18 18 18 18 18 17 19 19 18 17 17 16 15 16 13 12 13 12 9 13 13 14 12 14 12 13 12 11 10 10 9 8 8 6 6 9 8 8 7 6 6 4 4 4 3 2 2 2 1 2 2 2 2 2 3 4 4 4 4 5 5 5 4 4 4 4 4 4 4
18 18 17 17 16 16 16 15 17 15 16 16 19 20 14 16 18 17 18 22 24 25 24 23 22 21 20 19 19 19 17 16 17 17 18 17 16 16 16 16 15 14 11 11 13 13 15 14 13 16 13 13 13 15 13 13 12 9 8 9 10 9 9 9 9 9 8 7 8 6 5 4 4 3 3 2 3 4 2 3 3 4 4 5 5 6 6 6 6 6 6 6 5 6 5 5 5
18 17 16 16 18 14 12 13 13 11 15 18 20 21 18 15 15 17 19 18 20 18 17 18 21 22 21 20 19 17 17 17 16 17 17 18 16 16 17 16 17 15 10 12 12 13 15 15 14 17 15 13 14 15 15 14 11 10 8 11 11 10 11 11 10 10 9 8 8 7 7 6 4 4 3 3 3 3 3 3 4 4 5 5 5 5 5 6 6 6 7 8 7 7 6 6 6
23 13 13 14 14 12 10 11 13 13 16 20 21 23 24 18 12 17 20 21 18 18 19 23 22 23 20 19 18 18 18 18 19 17 17 17 17 16 18 17 17 15 13 14 14 13 15 14 13 15 15 14 14 14 15 12 11 10 7 9 12 11 12 10 11 10 10 10 9 8 7 6 6 5 4 4 4 4 3 4 4 5 5 5 5 5 5 6 6 6 6 6 7 7 6 6 6
22 17 16 17 14 13 14 13 14 16 16 15 20 25 18 17 15 14 17 23 18 17 17 19 22 22 21 21 20 17 17 18 18 18 17 18 17 17 17 19 18 18 16 17 16 15 16 16 17 17 18 17 14 14 15 13 13 10 8 9 10 10 11 11 11 10 10 9 8 8 8 7 6 6 5 5 5 4 4 4 4 4 5 5 6 6 6 7 6 6 6 7 6 6 5 5 5
21 20 18 19 16 15 14 15 11 14 17 15 16 19 16 14 17 22 17 16 18 18 18 18 22 21 22 21 19 18 18 18 17 18 18 18 18 18 17 19 17 17 18 17 17 14 13 15 16 17 18 17 13 14 15 15 13 11 11 9 11 10 12 11 10 10 10 9 8 8 7 7 6 6 5 5 5 6 4 4 5 6 6 6 6 7 7 7 7 7 7 7 7 6 6 7 7
20 19 19 17 15 14 15 15 16 16 13 16 15 14 13 19 12 16 20 18 14 18 18 17 19 22 21 20 20 20 19 18 18 17 18 18 19 20 18 19 15 15 17 16 16 16 14 15 14 16 15 15 15 13 13 14 12 13 12 14 13 13 13 11 10 9 11 11 10 9 7 6 6 5 5 6 6 5 6 6 6 6 6 7 7 7 7 7 7 7 7 7 6 6 6 6 6
18 18 17 18 17 10 12 9 13 13 11 12 13 9 12 14 5 3 9 21 9 9 14 16 18 19 20 19 19 18 17 17 17 17 17 19 19 20 17 16 17 17 17 16 16 16 16 16 18 18 17 15 14 15 15 15 13 12 13 14 14 14 12 10 8 8 9 8 8 9 8 7 6 6 6 6 7 7 7 7 7 7 7 7 7 7 7 7 6 6 7 6 7 5 7 8 7
17 18 19 17 15 14 8 6 3 2 9 11 7 11 11 6 6 8 7 16 17 14 14 16 16 18 19 18 18 18 17 17 17 18 17 20 18 19 18 18 17 18 18 18 18 18 17 18 18 19 16 14 16 18 16 15 13 12 14 15 14 13 13 13 11 11 10 10 8 6 6 7 6 5 7 7 7 7 7 7 7 7 7 7 7 7 7 7 7 6 6 7 6 6 6 6 5
15 18 19 18 18 12 10 9 7 7 11 8 13 15 15 13 9 11 11 14 12 14 15 17 17 17 18 17 17 17 17 17 19 18 18 20 20 21 19 19 19 19 20 20 19 17 15 17 19 21 19 20 19 17 16 14 13 13 14 14 14 14 13 13 12 12 11 10 9 8 7 5 7 7 8 8 7 8 7 8 7 7 7 7 7 7 7 7 7 6 7 6 6 6 6 5 5
17 16 13 16 13 15 12 7 12 11 11 8 13 16 13 15 10 10 15 16 13 14 16 17 18 18 16 16 18 18 18 16 17 18 17 18 18 20 20 20 20 20 18 16 17 18 16 15 17 19 20 18 17 14 14 14 13 11 11 13 14 13 11 11 11 12 10 10 10 9 8 7 7 9 9 9 8 8 8 8 8 8 7 8 7 7 7 6 7 7 6 6 6 5 6 6 5
17 17 18 15 12 14 13 9 9 10 10 10 12 14 11 13 11 13 13 16 17 17 16 16 16 17 16 15 16 17 17 15 16 17 17 18 19 21 22 21 21 21 19 16 18 16 18 16 16 18 17 16 13 16 15 14 12 11 12 14 13 13 12 12 13 12 10 10 10 8 8 9 9 9 9 9 9 9 9 9 8 8 8 8 8 7 6 7 6 6 6 5 5 6 6 6 6
16 16 16 16 13 11 11 11 13 11 8 9 7 10 10 10 11 13 14 14 16 16 15 14 15 17 17 16 15 16 17 16 16 16 17 18 19 19 19 20 19 19 16 15 16 18 18 15 16 18 19 20 17 16 16 15 12 14 16 16 14 12 12 12 13 12 11 11 9 8 8 8 9 9 10 9 9 9 9 9 9 9 9 8 8 7 6 6 6 6 6 6 6 6 6 6 6
16 15 18 18 18 19 17 13 13 12 11 8 8 8 6 7 9 11 10 13 12 15 16 15 16 17 17 16 15 15 15 16 17 17 17 17 18 18 18 18 17 18 17 18 17 16 18 17 16 15 18 18 19 18 15 15 13 12 16 14 15 13 14 12 12 11 11 10 9 8 8 9 10 10 10 9 10 9 9 10 9 9 9 9 8 8 7 6 6 7 6 5 5 6 7 7 6
Wind_Direction
293 283 313 274 261 264 270 226 255 198 225 240 207 214 108 225 299 164 189 148 220 78 359 121 109 175 339 34 43 55 40 25 6 4 50 90 159 125 152 136 129 129 128 126 132 140 137 131 132 136 137 138 135 132 132 131 128 125 125 124 123 121 115 117 116 115 115 115 116 108 107 109 103 98 94 89 85 79 89 93 96 101 99 105 107 108 100 96 101 103 99 100 100 93 87 84 77
309 305 270 266 259 277 240 297 270 273 228 258 200 224 127 171 240 234 150 3 33 62 340 84 95 62 333 23 63 93 35 44 355 67 85 113 121 147 139 137 139 133 128 127 140 145 141 136 133 137 142 138 135 134 134 130 127 127 128 126 123 123 121 118 118 118 122 119 108 110 115 108 95 91 90 84 76 80 88 101 101 102 105 108 113 107 100 108 106 101 99 97 97 94 86 79 76
303 288 252 231 257 247 289 257 255 255 241 227 150 225 81 213 100 154 46 59 73 95 145 76 111 146 146 193 109 24 111 115 101 100 105 131 132 133 149 139 138 133 128 134 139 143 141 140 136 141 142 138 137 135 132 131 130 130 128 128 125 124 126 122 121 120 116 109 112 117 110 101 97 91 87 82 83 87 91 90 98 107 111 108 106 105 109 107 103 104 101 94 92 88 81 70 64
275 257 285 285 283 223 252 245 247 259 247 258 221 82 237 293 154 43 59 109 95 214 188 161 142 347 307 58 214 93 81 55 43 116 137 175 125 147 141 143 134 133 131 137 142 138 140 136 138 143 140 139 138 136 135 134 133 130 129 128 130 129 129 129 127 127 123 125 119 109 104 102 98 94 89 87 86 80 78 94 101 103 105 107 109 110 107 108 110 105 101 96 90 88 82 78 62
277 255 228 281 282 264 268 239 248 222 252 207 250 148 271 274 82 237 113 114 99 19 301 93 191 77 249 43 243 92 116 117 72 72 93 87 119 139 142 136 143 135 133 133 137 136 133 139 139 142 140 140 140 140 138 136 135 132 132 134 135 132 133 131 123 120 118 115 111 114 112 108 103 99 95 93 89 88 85 88 96 102 107 108 98 94 98 103 104 104 99 98 93 85 77 73 58
293 276 209 236 269 10 281 276 233 232 241 329 251 182 200 153 144 267 120 94 101 81 350 6 355 198 108 73 12 78 279 151 121 99 115 124 131 140 136 146 137 137 132 133 128 134 141 133 139 141 142 142 141 140 138 137 136 135 137 139 136 136 133 129 124 124 125 118 120 111 107 107 107 105 102 96 90 93 98 96 102 111 111 114 114 111 109 105 109 108 107 99 95 83 83 62 47
302 325 259 226 233 227 262 245 254 240 229 116 252 160 256 141 13 259 122 163 87 138 8 27 278 209 134 109 93 55 51 50 174 100 116 129 132 135 141 143 136 126 127 129 129 132 134 131 135 143 143 141 139 140 139 135 138 138 135 134 136 132 131 126 123 119 116 116 110 111 111 108 106 105 104 101 96 94 96 103 110 110 112 121 122 119 118 115 114 114 108 105 107 103 93 81 28
255 273 310 283 274 223 226 240 257 243 211 241 246 162 194 71 242 260 87 290 84 284 95 116 81 344 93 206 60 86 65 57 78 96 115 130 133 136 146 136 129 130 127 128 129 121 126 128 133 141 140 139 141 140 136 136 139 136 133 133 131 129 128 119 116 114 115 116 115 116 118 114 110 113 111 111 110 104 104 113 115 107 114 114 122 123 124 126 113 113 119 124 118 135 126 85 54
250 246 219 279 264 273 257 245 246 249 132 248 181 24 36 245 267 271 36 234 141 264 98 7 54 263 62 83 79 96 70 78 93 109 124 129 133 142 139 137 140 134 128 128 113 122 135 126 133 142 140 140 142 141 134 137 138 137 131 129 127 124 122 118 116 116 115 116 122 121 116 114 112 111 118 118 118 115 115 116 118 123 119 125 122 126 123 123 132 129 133 136 142 141 144 143 354
269 224 227 232 252 245 252 241 250 222 239 169 202 191 213 210 194 259 256 167 46 277 79 300 306 17 110 87 122 109 95 110 120 122 126 132 136 139 138 142 136 129 131 120 132 132 132 129 126 134 139 142 141 138 133 135 136 133 127 122 120 119 112 109 106 107 108 90 99 108 112 117 120 123 120 126 123 121 119 120 123 125 126 129 132 132 135 141 141 144 140 147 155 153 163 177 260
264 227 259 254 228 239 245 239 230 229 231 204 188 132 230 221 261 191 229 315 176 314 161 342 205 62 114 97 85 80 108 129 136 129 134 132 136 139 137 135 126 128 130 126 138 128 131 141 131 131 139 140 129 129 131 131 128 121 116 112 114 115 118 112 110 103 102 114 96 101 101 113 118 135 131 135 132 126 127 123 123 128 129 130 139 137 144 145 152 152 152 159 160 166 170 202 260
254 251 218 239 248 241 226 249 242 224 232 213 214 187 210 235 232 227 168 241 62 174 13 318 32 298 135 135 109 133 131 144 130 131 134 135 138 134 133 127 123 130 124 127 124 128 141 139 151 140 138 132 133 133 133 128 122 117 114 112 111 112 115 113 112 106 106 110 111 110 124 127 137 139 144 139 138 133 135 135 131 129 133 132 133 146 144 153 156 166 167 166 176 177 188 201 213
240 226 243 244 238 243 252 239 232 218 230 215 230 217 222 243 221 222 247 265 179 261 117 47 23 202 305 88 151 132 151 141 134 137 137 143 134 132 126 120 126 123 131 140 128 136 143 149 146 161 138 134 137 134 134 124 119 115 113 113 113 115 114 114 110 112 109 112 118 122 132 141 148 150 149 148 149 146 141 140 140 138 137 143 142 147 154 156 167 169 174 178 176 191 194 196 209
234 232 239 245 236 240 241 243 239 214 221 195 230 241 226 257 234 245 252 240 179 330 36 37 292 4 61 209 134 154 150 145 137 138 144 138 133 128 121 117 119 130 144 146 133 145 146 157 149 153 148 153 147 141 133 127 123 119 117 118 119 118 118 118 120 118 117 118 125 133 135 147 153 156 154 155 148 159 151 152 151 148 150 149 157 161 163 167 174 174 181 183 194 201 213 214 228
243 240 247 249 249 241 238 245 225 221 216 199 189 209 222 238 273 232 239 241 158 30 48 97 8 263 68 252 0 188 144 150 143 145 141 132 130 120 117 119 129 143 154 162 137 147 151 156 149 158 160 156 156 151 148 131 127 122 123 125 123 123 128 130 129 125 123 123 127 137 140 148 159 161 164 162 167 155 177 160 169 168 164 168 167 172 179 187 187 198 192 203 205 218 231 233 235
240 249 249 248 235 241 233 238 245 242 192 164 161 205 227 215 219 255 226 273 42 83 306 76 9 16 174 277 178 152 142 147 144 145 138 132 126 124 126 131 142 157 155 151 151 150 162 162 148 161 163 155 159 154 147 139 130 128 127 127 128 132 139 140 133 129 127 133 139 146 150 152 161 166 169 171 174 182 178 205 162 182 188 185 184 187 198 203 205 207 214 214 219 216 229 230 230
221 242 246 238 247 238 234 242 229 231 118 172 156 209 214 226 195 250 11 252 269 143 280 45 31 242 2 58 83 123 135 140 142 147 142 141 140 140 138 141 158 149 152 158 168 145 166 165 152 161 169 162 156 149 145 138 131 129 131 130 133 139 146 149 141 134 138 151 164 174 175 170 157 153 179 169 171 186 184 213 177 190 203 201 197 198 203 201 206 209 210 216 217 217 219 224 222
224 225 230 235 230 238 231 241 238 233 137 176 172 224 209 235 201 220 226 245 260 190 248 116 68 29 30 78 133 130 139 145 151 158 155 150 162 150 159 154 164 158 168 163 167 162 168 172 160 166 163 159 155 150 146 140 145 148 141 145 150 149 160 161 166 152 150 159 193 178 196 173 166 165 166 154 181 159 172 176 193 189 200 201 198 205 201 209 210 213 215 216 220 218 219 219 213
227 228 230 233 229 236 241 243 241 229 197 137 223 223 215 237 240 201 230 242 241 227 220 143 207 331 131 139 129 141 146 148 158 163 163 160 172 160 159 160 169 164 173 165 166 169 183 162 167 161 164 160 157 154 145 145 153 149 147 162 149 166 164 178 169 165 158 169 178 188 196 172 181 148 155 177 154 171 150 181 187 197 195 203 208 210 216 214 219 217 218 224 225 228 226 223 218
223 236 229 231 234 241 237 246 243 228 229 177 238 221 218 232 242 151 227 254 224 234 262 191 213 184 182 157 155 156 155 154 161 165 164 169 171 162 166 161 168 168 172 169 160 173 186 157 169 168 161 158 158 153 147 158 156 154 159 156 159 165 177 183 173 180 168 186 172 177 186 182 169 151 147 140 135 159 151 189 194 200 206 215 211 218 217 224 221 221 225 221 225 230 228 222 220
213 229 236 232 226 236 238 235 241 246 213 214 240 253 224 214 253 221 199 240 239 241 238 270 215 190 172 173 175 166 165 161 162 165 173 169 183 163 167 170 176 165 174 165 168 177 189 167 163 162 165 161 160 150 154 162 156 160 158 156 167 168 189 173 172 181 169 171 188 189 193 186 174 140 160 160 180 159 164 189 184 204 201 193 208 215 202 202 208 206 212 215 230 225 206 39 224
232 231 234 239 242 233 231 240 239 241 218 204 217 230 242 206 242 245 225 245 233 204 225 241 264 306 175 184 185 177 175 168 166 168 175 181 191 160 165 164 165 160 157 162 163 182 182 167 164 158 165 171 158 153 161 154 155 166 164 169 167 178 183 175 171 169 175 191 194 193 194 192 191 153 173 175 199 191 191 181 196 196 205 221 176 214 211 225 210 233 234 210 225 242 127 101 25
229 230 236 234 239 250 237 231 237 237 233 213 214 226 244 207 245 231 224 243 235 245 219 210 236 257 168 188 187 183 181 171 168 172 178 189 185 171 169 165 169 164 174 163 166 174 171 168 162 151 171 163 161 155 155 155 169 167 167 181 176 164 178 181 176 176 181 185 197 194 198 200 200 159 163 207 210 202 169 210 207 214 195 217 218 143 209 218 211 222 218 252 46 91 28 28 39
231 235 227 234 235 237 246 243 236 239 231 231 216 235 244 224 236 222 221 233 243 239 162 208 237 256 231 189 194 190 182 172 170 174 181 196 181 181 174 172 168 176 175 155 156 165 171 168 165 161 169 161 158 164 155 169 174 164 177 183 195 155 181 190 175 179 172 194 196 198 214 222 199 190 183 188 201 213 244 141 169 194 197 178 190 159 196 185 278 321 76 132 106 63 20 37 19
226 232 231 234 232 234 238 246 234 235 226 225 234 230 240 236 236 227 224 223 232 232 170 206 227 239 246 205 193 184 182 171 178 181 190 193 182 177 175 179 172 181 183 146 154 166 164 169 167 172 162 168 162 167 169 171 170 172 173 182 204 153 189 193 167 169 188 178 193 208 211 228 219 224 183 200 210 194 215 148 22 226 122 281 11 121 350 62 238 38 46 357 71 89 117 46 37
222 232 230 229 241 231 228 246 244 246 238 226 223 238 236 239 235 237 240 219 222 231 184 215 222 234 225 206 196 182 180 178 178 183 188 184 179 181 174 183 177 183 168 151 154 154 167 170 170 171 165 167 164 172 179 168 175 173 165 201 170 176 186 178 166 184 186 177 178 208 205 211 235 238 177 239 204 192 162 68 174 328 9 339 347 44 11 15 44 62 35 9 24 83 72 64 334
223 228 235 224 236 241 220 229 235 243 237 235 229 237 241 229 226 235 225 250 231 213 201 218 241 240 210 198 192 181 184 177 179 180 180 186 174 180 176 183 174 181 156 153 149 160 162 170 169 169 171 166 170 181 179 164 178 179 172 199 167 195 173 173 188 179 173 187 164 181 205 198 209 262 247 223 225 204 153 200 176 160 175 145 244 54 40 39 42 50 47 16 12 30 33 46 26
233 231 227 230 232 238 236 223 232 231 231 239 238 235 247 236 225 235 229 201 247 200 211 243 248 241 214 194 197 180 184 176 180 182 180 186 176 176 177 183 173 178 164 150 160 158 166 174 172 169 171 169 176 180 182 170 179 185 175 194 171 183 166 187 188 174 175 165 160 167 177 206 210 181 266 239 218 257 53 328 343 50 311 33 326 23 41 13 30 33 22 65 45 13 65 66 71
226 234 238 224 224 233 229 240 225 227 235 231 234 243 237 230 230 228 230 223 185 196 235 242 240 234 219 194 201 191 186 179 184 186 182 187 178 165 176 177 171 174 153 156 178 158 166 177 170 169 169 173 185 181 182 171 181 181 180 182 170 163 190 194 166 169 171 150 157 166 170 163 204 180 225 238 223 114 112 121 320 181 238 261 65 64 37 73 111 88 68 70 84 63 51 79 45
231 227 233 229 224 227 229 233 228 222 235 235 220 238 232 228 233 232 215 218 171 200 216 235 243 235 225 197 199 200 185 183 188 189 178 183 182 170 171 176 171 179 151 158 175 171 169 169 170 170 172 181 184 183 183 175 178 179 173 179 164 177 188 181 160 166 173 165 153 143 163 179 201 208 210 209 259 116 199 275 211 149 313 79 94 89 116 57 38 36 49 24 1 91 51 42 89
224 218 229 227 227 226 219 225 214 226 226 226 226 241 238 233 231 227 214 217 196 215 222 229 238 229 228 205 200 198 186 190 188 185 174 179 176 174 171 171 166 180 168 163 177 174 170 172 168 169 176 182 185 188 181 180 175 181 175 175 163 188 167 170 173 173 180 163 171 154 173 183 193 204 226 291 264 56 223 244 201 135 115 84 76 68 29 70 35 38 42 14 50 33 93 34 55
214 211 222 218 229 228 224 215 213 221 220 221 227 235 237 239 235 224 217 200 204 217 228 227 227 226 215 214 202 202 188 187 185 184 173 176 178 171 168 171 164 182 171 167 176 172 172 173 173 172 176 183 185 184 186 176 173 189 174 164 171 181 170 177 178 174 154 147 169 139 157 178 200 206 228 196 61 342 304 256 249 115 82 92 52 59 43 66 31 28 35 7 343 37 17 102 57
210 220 214 212 217 226 219 204 211 218 229 220 222 237 233 232 241 245 227 199 193 212 225 224 219 215 209 212 208 203 187 183 186 184 181 177 172 158 160 156 172 186 177 171 167 174 171 168 176 178 178 184 184 180 175 169 182 182 169 160 179 174 176 176 166 145 156 161 151 151 154 184 203 210 251 123 274 264 250 237 93 95 105 82 71 63 59 63 66 53 44 18 347 254 144 110 102
208 206 220 215 216 214 227 213 207 213 216 222 217 231 235 240 229 229 253 187 182 209 221 215 212 211 209 212 207 200 196 186 188 180 182 174 164 147 162 163 175 190 176 171 166 169 171 171 178 184 178 182 177 174 169 176 180 175 166 171 172 174 171 160 152 154 144 157 152 131 132 96 337 333 249 129 191 251 2 167 81 77 79 90 100 100 62 47 58 28 64 360 318 299 29 106 117
198 200 212 221 219 221 222 217 208 206 205 221 225 225 231 231 241 240 139 164 192 209 214 216 210 212 215 213 208 203 201 192 191 182 170 156 161 156 163 170 181 189 179 169 167 170 173 175 180 182 180 179 171 170 161 174 173 175 152 174 173 168 165 153 158 149 136 120 131 116 89 45 306 219 289 103 272 228 145 87 71 64 68 78 95 147 127 85 60 20 336 135 61 336 245 116 115
208 207 214 216 218 219 221 217 224 212 210 216 224 230 220 221 231 231 178 187 198 208 221 223 224 221 221 214 211 205 205 198 186 182 163 156 163 165 170 174 178 184 180 168 166 171 174 179 179 180 181 172 161 167 168 183 176 179 168 175 166 170 160 146 134 122 130 121 108 83 77 6 182 253 239 345 109 88 90 79 74 57 62 57 54 29 86 88 76 155 199 311 117 191 178 113 126
217 219 219 220 225 229 222 225 220 218 214 214 219 231 237 209 225 234 201 195 201 210 221 227 229 227 219 213 208 208 205 201 175 171 167 149 163 163 167 170 176 173 180 172 170 179 177 181 179 181 180 170 164 174 173 179 178 177 175 171 162 158 154 141 134 121 109 80 90 76 99 166 185 145 12 48 44 69 65 69 65 39 21 44 34 17 304 51 210 254 121 297 132 168 142 131 123
227 221 224 224 222 225 222 219 215 221 232 221 211 231 234 221 225 223 228 198 205 211 220 226 227 225 226 219 211 210 205 194 170 175 162 161 168 164 161 169 170 173 176 177 178 181 183 182 182 179 174 167 172 172 174 177 183 181 176 167 163 154 157 165 154 127 100 94 88 88 94 88 86 51 53 45 40 34 48 65 58 51 4 55 345 97 358 268 216 217 173 157 165 168 150 141 147
226 225 221 226 222 226 224 223 211 217 228 232 219 226 229 225 226 223 224 228 201 207 215 222 229 226 228 230 223 211 203 197 175 172 156 166 160 159 163 163 169 173 173 180 181 182 181 182 183 175 169 172 171 167 175 180 188 169 174 158 160 142 106 111 105 104 101 111 81 54 48 46 49 78 44 39 10 26 32 39 59 50 314 224 201 173 197 219 240 120 210 156 141 109 122 158 165
224 224 227 219 219 216 210 217 217 215 223 220 217 229 224 225 229 227 220 233 218 200 212 227 228 227 223 229 229 213 198 195 180 172 169 165 164 163 164 166 168 172 175 184 187 183 178 184 182 169 173 176 172 160 177 179 166 150 148 141 133 126 131 112 109 114 125 128 106 74 56 49 54 59 42 17 18 37 358 333 206 218 176 249 276 207 123 117 195 188 181 158 153 149 171 156 201
221 229 222 231 222 214 224 205 215 219 223 210 218 230 225 218 220 224 222 223 230 196 210 220 218 223 232 226 228 219 207 190 182 177 171 171 168 167 165 172 169 170 180 185 185 178 181 185 178 171 170 173 154 146 176 162 148 126 116 112 101 99 117 124 120 140 141 120 108 100 89 73 70 67 48 345 357 301 306 303 309 255 264 280 235 72 139 153 172 129 127 133 317 175 134 139 132
216 226 227 222 229 222 210 222 210 206 206 206 216 228 228 220 225 225 218 217 226 201 203 215 215 210 213 226 220 211 207 200 189 183 180 179 176 169 167 168 169 175 183 186 184 178 180 177 146 113 170 137 145 168 171 160 149 141 143 138 143 156 154 163 169 163 147 134 115 102 66 75 70 49 274 269 333 358 265 302 282 240 181 186 82 134 125 132 118 138 133 133 96 56 123 137 128
217 204 216 225 224 226 216 206 187 198 209 197 206 225 231 220 230 223 219 223 217 198 208 214 212 207 204 215 213 202 201 201 188 182 180 175 178 169 169 172 173 176 186 184 178 173 170 145 146 182 164 163 171 177 171 158 159 151 156 160 168 174 169 169 133 148 146 139 136 115 88 77 81 117 305 36 204 314 303 245 194 235 107 119 115 103 111 103 90 63 75 89 101 108 120 116 125
218 198 206 224 222 212 209 208 190 207 210 214 203 215 238 236 222 218 215 225 213 209 211 211 206 204 204 205 203 197 198 196 190 182 180 176 177 177 172 172 179 181 183 186 162 148 167 163 164 185 175 168 178 176 169 165 168 170 167 163 171 179 170 149 155 150 144 137 127 108 103 87 127 219 147 213 120 162 186 169 172 106 131 125 126 109 96 83 98 80 58 66 54 50 86 108 109
208 198 199 209 219 222 218 212 210 206 202 212 203 201 227 237 236 216 215 222 209 212 211 208 204 201 200 199 197 196 195 191 189 186 181 179 179 178 171 172 182 182 176 176 145 153 157 165 182 186 167 175 177 172 168 173 178 179 172 159 168 167 135 137 151 152 147 130 109 121 125 136 172 156 141 138 195 113 165 149 129 150 134 121 111 102 88 83 77 82 83 76 76 73 55 79 104
204 204 191 202 213 224 218 206 213 204 217 223 214 199 221 231 226 230 219 217 212 216 212 208 204 198 196 197 197 194 190 191 189 186 182 173 175 176 167 166 175 174 170 159 146 155 173 178 188 186 176 177 183 179 178 175 181 172 166 161 154 155 145 154 158 156 154 151 156 146 150 154 156 154 150 141 187 153 136 123 131 105 91 78 82 86 93 90 85 81 79 81 86 80 64 56 64
201 221 188 197 206 211 206 212 211 206 219 226 222 206 211 236 222 216 228 215 212 212 210 208 203 199 196 194 194 190 188 189 187 183 178 174 170 174 160 158 169 164 161 158 151 163 175 179 186 189 187 179 180 180 182 179 172 165 149 160 160 161 166 163 164 159 156 161 160 161 164 156 158 150 152 153 146 115 140 114 110 112 101 105 104 105 100 100 95 89 86 83 79 81 80 80 73
217 199 196 189 200 204 209 215 214 216 225 219 216 228 212 232 219 223 218 231 207 208 206 203 199 200 196 191 192 191 191 191 188 182 176 169 166 165 161 160 164 162 164 173 164 167 173 175 183 188 186 188 180 180 178 171 166 161 145 160 161 173 169 168 166 165 165 166 166 163 162 157 160 155 159 156 154 141 133 123 111 107 104 102 101 103 103 98 97 96 90 85 81 81 87 84 86
214 195 194 193 180 189 203 202 207 220 227 212 216 222 222 218 232 237 217 225 211 199 212 204 195 196 195 192 191 188 190 191 187 180 180 172 170 166 163 163 164 168 174 176 168 168 172 173 183 190 193 189 186 175 173 169 171 149 159 173 164 166 177 171 169 172 169 165 169 167 163 163 161 161 167 164 148 160 138 138 129 109 102 93 98 99 95 95 94 93 88 82 80 80 74 75 75
207 194 195 197 185 185 191 195 205 216 223 228 217 206 229 232 229 232 244 226 210 195 211 212 193 196 201 197 189 186 188 190 185 175 176 172 169 166 169 165 168 169 173 175 170 164 171 176 183 195 190 184 180 171 171 174 171 164 160 174 171 166 174 172 174 168 168 172 171 171 167 164 164 166 165 164 151 165 140 122 114 106 103 109 110 108 108 106 104 101 98 95 92 89 88 88 85
203 196 207 199 197 182 184 191 196 205 206 202 210 204 215 222 220 209 217 242 220 196 203 212 196 195 198 199 194 188 187 188 186 176 172 169 169 165 166 167 166 171 171 174 172 170 174 177 184 189 184 177 178 166 175 174 171 170 159 172 160 182 173 170 168 165 175 174 164 164 168 163 162 164 162 157 157 139 130 127 124 120 114 113 111 108 104 101 100 100 99 95 91 85 88 88 88
203 201 203 205 203 179 197 189 205 200 205 205 195 223 205 217 61 339 208 219 204 188 200 206 198 195 191 195 195 190 186 186 183 179 175 169 168 161 164 166 170 173 170 173 170 169 173 170 178 183 181 181 176 172 181 175 173 167 162 166 166 175 171 165 164 167 168 174 167 167 157 160 157 163 161 161 159 147 140 133 128 123 125 121 119 117 115 110 109 107 102 100 96 97 100 98 99
186 196 204 202 199 193 193 185 303 196 203 217 178 215 231 210 190 195 207 229 194 188 203 206 200 193 189 192 193 189 186 187 184 180 172 167 166 166 168 163 166 171 173 174 172 173 175 172 176 176 177 176 178 178 176 174 169 160 169 170 165 172 168 168 164 167 162 162 155 153 162 162 153 149 157 163 158 145 144 138 129 127 128 125 118 115 115 116 118 108 106 106 104 102 95 90 92
181 202 200 205 214 202 196 201 179 204 197 205 187 204 212 210 214 190 198 233 189 183 200 202 200 194 193 188 189 186 185 188 185 177 168 166 168 168 167 168 171 172 175 174 169 170 176 180 177 175 178 178 179 174 169 167 161 168 172 166 165 169 170 166 162 162 159 146 140 148 148 148 175 165 166 162 155 145 138 136 134 132 129 128 127 125 121 118 117 111 110 108 109 113 110 107 100
206 198 193 214 188 210 194 213 191 196 200 207 190 205 216 213 207 168 186 205 205 199 200 202 197 191 190 183 184 184 184 186 184 177 172 168 166 167 168 168 176 174 176 173 171 172 172 184 181 178 174 174 169 166 159 165 164 170 166 164 167 170 169 155 154 160 152 145 143 144 154 165 159 161 163 162 151 145 143 140 138 134 134 132 127 123 126 123 117 115 115 116 123 123 115 113 108
219 194 206 210 216 211 189 203 198 198 201 211 199 200 214 212 218 177 186 198 205 209 202 203 194 186 186 185 186 184 183 185 184 180 175 171 168 170 172 173 173 173 173 175 176 175 173 181 183 177 170 168 157 168 160 160 170 167 169 165 168 171 162 158 161 155 149 149 143 148 164 156 162 163 162 159 154 149 147 143 143 140 137 135 134 136 130 125 124 123 128 126 123 126 124 117 111
201 199 199 194 219 205 226 192 214 198 209 202 211 204 210 207 209 209 183 189 198 207 198 198 195 191 188 188 188 185 184 182 181 179 175 171 168 169 169 174 170 170 171 175 178 177 176 180 183 179 164 165 167 167 163 169 174 169 167 168 165 165 157 159 156 151 148 148 141 155 160 162 160 164 160 160 154 151 149 149 145 145 144 141 139 138 135 130 128 128 123 127 137 131 124 113 111
200 191 200 190 197 192 201 211 199 213 205 202 206 218 204 192 180 220 196 174 200 206 201 199 200 194 187 186 183 185 182 176 176 176 173 170 169 168 167 171 170 170 174 175 177 176 175 179 180 177 172 165 169 169 163 165 175 168 166 164 162 164 163 157 147 150 150 151 157 161 162 161 164 159 164 157 154 150 151 151 149 148 147 144 143 139 139 136 130 128 129 137 137 132 120 124 128